Weather History for Fairhope, AL

Change the Weather History Date:

Tuesday, February 5, 2013

  Actual Average (KBFM) Record (KBFM)
Temperature  
Mean Temperature 60 °F -  
Max Temperature 68 °F 58 °F 71 °F (2008)
Min Temperature 51 °F 41 °F 26 °F (2009)
Degree Days  
Heating Degree Days 6    
Growing Degree Days 10 (Base 50)    
Moisture  
Dew Point 58 °F    
Average Humidity 91    
Maximum Humidity 100    
Minimum Humidity 78    
Precipitation  
Precipitation 0.24 in - - ()
Sea Level Pressure  
Sea Level Pressure 30.00 in    
Wind  
Wind Speed 4 mph (East)    
Max Wind Speed 10 mph    
Max Gust Speed -    
Visibility 6 miles    
Events Fog , Rain    
Averages and records for this station are not official NWS values.
T = Trace of Precipitation, MM = Missing Value Source: NWS Daily Summary

Daily Weather History Graph

Daily Weather History Graph

Search for Another Location

Airport:

Trip Planner

Search our weather history database for the weather conditions in past years. The results will help you decide how hot, cold, wet, or windy it might be!

Date:

Astronomy

Feb. 05, 2013 Rise Set
Actual Time 6:39 AM CST 5:31 PM CST
Civil Twilight 6:14 AM CST 5:56 PM CST
Nautical Twilight 5:46 AM CST 6:25 PM CST
Astronomical Twilight 5:17 AM CST 6:53 PM CST
Moon 2:13 AM CST (2/5) 12:56 PM CST (2/5)
Length of Visible Light 11h 41m
Length of Day
10h 52m
Waning Crescent, 26% of the Moon is Illuminated
Feb 5
Waning Crescent
Feb 10
New
Feb 17
First Quarter
Feb 25
Full
Mar 4
Last Quarter

Hourly Weather History & Observations

Time (CST) Temp. Dew Point Humidity Pressure Visibility Wind Dir Wind Speed Gust Speed Precip Events Conditions
12:15 AM 55.4 °F 55.4 °F 100% 30.00 in 10.0 mi Calm Calm - 0.01 in Rain Light Rain
12:35 AM 55.4 °F 55.4 °F 100% 30.00 in 10.0 mi Calm Calm - 0.01 in Rain Light Rain
1:15 AM 55.4 °F 55.4 °F 100% 30.00 in 5.0 mi Calm Calm - 0.02 in Rain Light Rain
1:35 AM 55.4 °F 55.4 °F 100% 29.99 in 7.0 mi Calm Calm - 0.02 in Rain Rain
1:55 AM 55.4 °F 55.4 °F 100% 29.99 in 7.0 mi Calm Calm - 0.03 in Rain Light Rain
2:15 AM 55.4 °F 55.4 °F 100% 29.98 in 7.0 mi East 3.5 mph - 0.01 in Rain Rain
2:35 AM 57.2 °F 55.4 °F 94% 29.98 in 10.0 mi Calm Calm - 0.01 in Rain Light Rain
3:15 AM 57.2 °F 55.4 °F 94% 29.99 in 7.0 mi North 5.8 mph - 0.01 in Rain Light Rain
3:35 AM 57.2 °F 55.4 °F 94% 29.98 in 7.0 mi NE 6.9 mph - 0.03 in Rain Light Rain
3:55 AM 57.2 °F 55.4 °F 94% 29.99 in 7.0 mi North 3.5 mph - 0.05 in Rain Light Rain
4:15 AM 57.2 °F 55.4 °F 94% 29.98 in 7.0 mi NNE 4.6 mph - 0.01 in Rain Rain
4:35 AM 57.2 °F 55.4 °F 94% 29.98 in 4.0 mi ENE 5.8 mph - 0.06 in Rain Rain
4:55 AM 57.2 °F 55.4 °F 94% 29.98 in 5.0 mi East 8.1 mph - 0.14 in Rain Rain
5:15 AM 57.2 °F 55.4 °F 94% 29.98 in 7.0 mi ENE 8.1 mph - 0.01 in Rain Rain
5:35 AM 57.2 °F 55.4 °F 94% 29.98 in 10.0 mi ENE 9.2 mph - 0.01 in Rain Rain
6:15 AM 59.0 °F 57.2 °F 94% 29.98 in 10.0 mi East 4.6 mph - N/A   Overcast
6:35 AM 59.0 °F 57.2 °F 94% 29.99 in 7.0 mi East 8.1 mph - N/A   Overcast
6:55 AM 57.2 °F 55.4 °F 94% 29.98 in 10.0 mi East 6.9 mph - N/A   Overcast
7:15 AM 57.2 °F 55.4 °F 94% 29.99 in 7.0 mi ENE 8.1 mph - N/A   Overcast
7:35 AM 59.0 °F 57.2 °F 94% 30.00 in 5.0 mi East 5.8 mph - N/A   Overcast
7:55 AM 59.0 °F 57.2 °F 94% 30.00 in 7.0 mi East 6.9 mph - N/A   Overcast
8:15 AM 59.0 °F 57.2 °F 94% 30.00 in 10.0 mi East 5.8 mph - N/A   Overcast
8:35 AM 59.0 °F 59.0 °F 100% 30.01 in 7.0 mi ENE 3.5 mph - N/A   Overcast
9:15 AM 60.8 °F 59.0 °F 94% 30.02 in 7.0 mi ENE 4.6 mph - N/A   Overcast
9:35 AM 60.8 °F 59.0 °F 94% 30.03 in 7.0 mi ENE 4.6 mph - N/A   Overcast
9:55 AM 60.8 °F 59.0 °F 94% 30.02 in 7.0 mi East 6.9 mph - N/A   Overcast
10:15 AM 62.6 °F 60.8 °F 94% 30.03 in 7.0 mi East 5.8 mph - N/A   Overcast
10:35 AM 62.6 °F 60.8 °F 94% 30.02 in 7.0 mi East 8.1 mph - N/A   Overcast
10:55 AM 66.2 °F 62.6 °F 88% 30.02 in 7.0 mi ESE 9.2 mph - N/A   Overcast
11:15 AM 68.0 °F 62.6 °F 83% 30.01 in 7.0 mi ESE 9.2 mph - N/A   Overcast
11:35 AM 68.0 °F 60.8 °F 78% 30.01 in 7.0 mi East 10.4 mph - N/A   Overcast
11:55 AM 68.0 °F 60.8 °F 78% 30.01 in 7.0 mi SE 8.1 mph - N/A   Overcast
12:15 PM 68.0 °F 60.8 °F 78% 30.00 in 10.0 mi ESE 6.9 mph - N/A   Overcast
12:35 PM 68.0 °F 60.8 °F 78% 30.00 in 7.0 mi East 8.1 mph - N/A   Overcast
12:55 PM 68.0 °F 62.6 °F 83% 29.99 in 7.0 mi SE 6.9 mph - N/A   Overcast
1:15 PM 68.0 °F 60.8 °F 78% 29.98 in 7.0 mi East 8.1 mph - N/A   Overcast
1:35 PM 68.0 °F 60.8 °F 78% 29.98 in 5.0 mi ESE 8.1 mph - N/A   Haze
1:55 PM 68.0 °F 60.8 °F 78% 29.98 in 7.0 mi ESE 6.9 mph - N/A   Overcast
2:15 PM 68.0 °F 60.8 °F 78% 29.98 in 7.0 mi East 6.9 mph - N/A   Overcast
2:35 PM 68.0 °F 60.8 °F 78% 29.97 in 10.0 mi ENE 5.8 mph - N/A   Overcast
2:55 PM 68.0 °F 60.8 °F 78% 29.97 in 7.0 mi East 4.6 mph - N/A   Overcast
3:15 PM 68.0 °F 60.8 °F 78% 29.97 in 7.0 mi East 4.6 mph - N/A   Overcast
3:35 PM 68.0 °F 60.8 °F 78% 29.96 in 7.0 mi East 5.8 mph - N/A   Overcast
3:55 PM 68.0 °F 60.8 °F 78% 29.96 in 10.0 mi ESE 4.6 mph - N/A   Overcast
4:15 PM 68.0 °F 60.8 °F 78% 29.97 in 7.0 mi East 4.6 mph - N/A   Overcast
4:35 PM 68.0 °F 60.8 °F 78% 29.97 in 7.0 mi East 5.8 mph - N/A   Overcast
4:55 PM 68.0 °F 60.8 °F 78% 29.98 in 7.0 mi East 3.5 mph - N/A   Overcast
5:15 PM 68.0 °F 60.8 °F 78% 29.97 in 10.0 mi ENE 3.5 mph - N/A   Overcast
5:35 PM 64.4 °F 60.8 °F 88% 29.97 in 7.0 mi NE 3.5 mph - N/A   Scattered Clouds
6:15 PM 60.8 °F 59.0 °F 94% 29.98 in 7.0 mi Calm Calm - N/A   Clear
6:35 PM 59.0 °F 59.0 °F 100% 29.99 in 1.0 mi Calm Calm - N/A   Mist
6:55 PM 55.4 °F 55.4 °F 100% 30.00 in 0.2 mi Calm Calm - N/A Fog Fog
7:15 PM 55.4 °F 55.4 °F 100% 30.00 in 1.8 mi Calm Calm - N/A   Mostly Cloudy
8:35 PM 53.6 °F 51.8 °F 94% 30.02 in 0.2 mi Calm Calm - N/A Fog Fog
8:55 PM 51.8 °F 51.8 °F 100% 30.02 in 0.5 mi Calm Calm - N/A Fog Fog
9:15 PM 51.8 °F 51.8 °F 100% 30.03 in 0.5 mi Calm Calm - N/A Fog Fog
9:55 PM 53.6 °F 53.6 °F 100% 30.03 in 0.5 mi Calm Calm - N/A Fog Fog
10:15 PM 53.6 °F 53.6 °F 100% 30.03 in 0.5 mi Calm Calm - N/A Fog Fog
10:35 PM 53.6 °F 51.8 °F 94% 30.03 in 0.5 mi Calm Calm - N/A Fog Fog
11:15 PM 53.6 °F 53.6 °F 100% 30.04 in 0.5 mi Calm Calm - N/A Fog Fog
11:35 PM 51.8 °F 51.8 °F 100% 30.04 in 0.2 mi Calm Calm - N/A Fog Fog